Theta_e
317 316 316 318 316 315 321 325 322 325 324 326 328 327 332 333 334 332 334 336 332 333 335 333 335 336 334 331 330 330 331 334 333 332 333 331 330 330 331 330 330 332 335 334 331 330 328 326 326
316 315 317 311 317 319 318 317 324 322 326 327 326 330 333 338 334 334 335 336 330 329 332 333 331 335 334 331 329 332 330 334 334 333 331 330 330 329 329 330 332 331 333 332 329 327 326 326 324
316 317 313 314 314 319 319 319 321 324 327 320 329 328 332 336 333 334 336 335 331 335 335 333 333 334 335 330 330 329 331 335 334 333 331 330 328 328 329 328 329 329 330 330 329 327 324 324 324
316 314 309 314 319 317 316 319 319 322 319 326 328 333 331 331 334 336 336 333 331 334 333 331 333 334 335 328 330 330 332 336 334 332 330 330 328 327 327 328 328 327 328 328 328 326 322 323 323
314 310 314 314 316 314 312 318 316 317 318 323 326 334 334 334 334 337 336 333 328 329 329 331 334 336 334 327 328 329 330 333 332 330 328 330 327 328 328 325 327 327 328 327 326 325 321 321 322
314 311 314 316 316 316 318 316 316 316 321 328 330 331 333 335 337 336 334 331 329 328 331 334 335 336 333 326 328 331 329 329 330 330 329 326 327 327 328 325 322 324 325 322 321 319 318 320 320
315 314 316 314 315 320 321 313 315 317 324 326 327 333 332 332 335 335 334 332 330 329 332 336 335 335 333 326 325 330 329 324 323 325 328 325 324 326 327 327 325 323 320 319 318 318 318 319 320
310 312 315 315 314 321 315 314 313 319 318 324 325 330 334 332 335 335 333 331 329 330 332 335 335 335 331 325 322 325 328 322 317 320 327 327 324 325 325 326 326 323 320 319 318 318 318 318 319
309 314 315 316 313 317 312 315 312 314 325 323 324 325 328 333 334 333 332 332 331 330 332 335 335 334 329 324 320 318 321 318 316 318 323 326 326 326 324 323 323 322 320 318 319 319 321 321 320
312 314 316 314 311 313 312 313 312 319 325 327 326 328 330 332 332 330 329 328 330 330 332 336 335 334 328 324 319 317 317 316 316 316 320 321 324 325 324 324 323 321 320 319 319 320 320 320 320
312 316 315 315 313 312 312 313 314 318 324 323 325 329 330 331 331 329 328 326 324 326 330 333 335 333 328 326 322 319 316 316 316 317 320 320 319 317 316 317 318 316 318 317 318 318 319 317 317
314 312 313 315 313 312 311 311 315 317 317 316 322 329 330 331 330 329 327 326 324 324 324 330 333 333 329 327 324 320 317 318 319 320 321 321 321 319 317 318 318 321 322 320 318 319 319 318 318
314 313 311 310 312 312 310 312 314 314 313 321 327 330 331 330 331 330 328 326 325 324 322 324 327 329 329 328 326 324 320 320 323 323 323 322 321 322 322 322 322 322 322 322 321 320 319 320 320
313 315 311 310 310 311 312 312 314 313 324 327 330 330 331 331 331 331 331 329 327 325 323 322 322 323 325 326 326 324 323 321 322 324 324 323 323 321 323 323 323 323 323 322 321 321 320 320 320
316 319 315 312 311 312 311 313 312 311 324 328 329 329 329 331 331 331 332 331 331 327 323 323 322 322 323 323 323 323 323 326 327 327 327 325 324 323 323 323 323 323 323 322 322 322 322 322 322
324 320 322 315 311 312 312 315 312 314 325 327 326 327 328 327 328 331 333 333 333 331 326 323 324 327 328 326 325 324 326 328 329 329 328 328 327 324 324 323 323 323 323 323 323 323 323 322 322
321 330 322 322 310 310 311 314 311 314 324 325 325 323 326 327 326 329 332 334 334 333 331 329 328 330 330 330 329 329 329 329 329 328 328 328 327 326 325 324 324 323 323 323 323 322 322 322 323
326 326 314 323 313 309 311 309 309 307 323 325 325 323 324 326 327 327 330 333 334 334 333 332 331 330 330 330 330 329 329 329 328 328 328 327 326 325 324 324 324 325 325 324 324 326 325 324 325
324 325 324 311 310 311 310 311 311 306 309 321 323 324 324 325 326 327 328 330 333 334 333 332 332 332 331 330 329 329 329 329 329 329 329 328 327 326 325 325 325 326 326 326 326 326 325 323 323
318 321 322 311 309 309 310 310 309 305 306 313 320 320 322 320 318 323 326 328 330 332 333 333 332 332 332 331 330 330 329 328 328 330 331 329 328 328 327 327 327 328 328 328 327 327 325 323 323
318 320 320 313 310 308 309 311 309 307 304 305 304 310 313 318 318 316 320 324 328 329 330 332 333 332 332 332 332 331 331 329 327 329 330 330 330 328 327 327 327 327 328 327 326 325 324 323 320
322 316 314 312 312 320 308 316 311 307 307 304 305 302 304 303 305 310 314 319 323 327 329 330 331 332 333 333 332 332 331 329 328 326 326 327 327 326 327 327 327 326 327 325 325 324 323 320 316
321 313 313 313 312 310 314 308 312 304 307 307 305 303 303 302 301 303 307 315 322 325 327 328 329 330 332 332 332 332 332 331 329 327 325 326 326 327 327 326 326 325 325 323 320 318 317 316 314
313 315 315 315 316 318 317 310 313 309 305 308 307 305 304 301 299 299 305 309 314 320 322 324 326 329 330 332 332 332 332 331 329 326 325 326 326 326 325 325 325 324 319 318 317 316 314 310 306
314 319 320 321 320 321 309 308 314 308 303 307 309 308 304 302 299 299 302 306 309 314 318 322 325 328 330 331 331 332 332 332 331 326 324 325 325 325 324 323 321 317 317 315 312 308 303 299 297
316 319 320 322 319 315 303 309 313 305 302 301 302 302 302 300 300 301 303 306 309 311 314 317 320 326 328 329 330 331 331 332 331 327 325 324 324 323 321 318 315 316 310 305 301 298 295 293 292
315 319 311 309 302 310 308 306 305 303 302 303 303 302 301 300 302 304 305 309 310 311 311 311 311 314 322 328 329 328 330 330 330 327 325 324 323 320 315 314 312 305 300 297 295 294 292 291 290
316 314 318 312 311 310 306 305 313 307 305 303 304 304 304 301 303 304 306 309 311 311 311 311 310 309 310 321 327 327 327 329 328 327 325 322 318 314 313 311 301 297 295 294 293 292 291 290 289
315 317 313 313 308 310 307 306 302 307 306 305 305 305 305 302 304 304 305 310 312 312 312 312 311 310 311 318 323 325 326 327 326 325 323 317 313 311 308 300 296 294 293 292 291 290 290 289 289
312 314 314 319 312 305 308 307 303 301 300 302 303 304 304 303 303 303 304 307 309 310 312 313 313 312 314 317 320 323 324 324 323 320 315 312 310 303 298 295 293 292 291 290 290 289 289 289 288
Wind_Speed
9 10 4 4 4 5 1 3 0 3 0 0 3 4 6 3 3 3 5 8 21 20 17 14 14 14 15 16 15 15 17 17 18 17 18 19 17 18 19 18 19 19 18 19 19 19 18 17 17
8 6 3 2 4 3 4 2 5 5 4 6 5 3 5 2 2 6 11 16 21 20 17 15 15 16 16 15 16 16 18 15 16 17 19 17 17 17 18 17 17 17 17 17 15 17 16 15 15
6 2 3 4 3 4 4 4 5 3 7 1 4 5 3 4 3 13 10 23 21 20 17 16 17 17 15 14 16 15 16 16 17 18 17 17 17 16 17 16 16 15 15 15 16 16 15 12 13
3 4 4 4 3 4 4 4 5 7 2 3 4 6 2 2 13 8 23 22 21 19 16 16 18 17 15 15 17 16 15 19 17 16 16 16 16 16 15 15 15 13 13 14 15 14 14 13 12
3 3 3 2 2 2 3 3 7 5 4 2 2 4 3 3 6 19 24 21 21 19 18 17 18 19 16 15 16 15 15 15 16 15 15 16 16 15 13 13 13 12 13 13 12 12 12 13 12
2 3 3 1 3 3 2 5 5 4 2 3 5 4 2 7 18 25 23 21 19 20 20 18 19 19 15 15 17 14 13 14 14 14 15 16 16 16 13 10 11 11 11 11 11 10 10 10 11
4 3 3 4 2 1 3 6 4 4 5 4 8 5 2 6 18 25 23 21 19 20 20 19 22 19 15 15 16 15 12 14 14 15 16 14 15 15 13 9 10 10 11 10 10 9 9 9 10
4 4 4 2 3 4 4 5 3 4 2 2 1 6 6 11 23 24 22 20 19 19 19 20 21 20 17 15 15 16 14 13 13 14 15 14 11 11 10 9 8 8 8 8 7 7 7 7 7
3 4 3 6 6 3 4 4 2 2 6 1 4 6 5 28 26 24 22 17 17 19 18 20 21 20 17 16 16 15 14 13 13 14 13 12 11 9 7 7 6 6 6 6 6 6 6 5 6
4 4 8 5 6 5 6 6 9 4 4 1 2 5 24 29 26 20 20 19 14 20 21 21 21 20 18 17 17 16 15 14 13 13 13 11 9 7 5 5 4 3 3 4 3 3 5 5 5
0 4 3 3 3 4 6 4 5 8 4 7 9 11 17 22 21 16 18 28 27 24 22 22 22 20 18 18 17 15 14 14 13 12 11 9 8 7 6 5 4 4 4 3 2 2 4 5 6
2 5 3 3 2 5 7 7 6 7 6 5 11 21 20 18 20 19 19 24 28 26 24 23 21 20 18 17 16 15 14 13 12 11 9 7 6 5 5 4 4 4 3 2 2 3 4 6 7
4 7 9 8 4 3 7 4 4 7 5 4 15 18 17 19 20 20 26 25 27 28 25 24 24 21 19 18 16 14 13 13 11 10 8 7 6 4 3 3 2 1 1 2 3 4 5 6 7
3 3 7 5 6 3 5 1 3 3 4 7 14 16 14 18 21 17 23 25 27 27 28 25 24 23 21 20 17 15 14 12 11 9 7 7 5 5 4 2 2 2 3 4 5 6 7 9 10
3 6 8 5 3 3 2 1 7 3 7 9 10 12 11 14 19 22 25 28 29 28 27 27 26 23 22 21 18 17 15 14 12 9 8 7 6 5 5 4 3 3 4 5 6 8 9 11 12
4 4 2 4 4 1 4 9 4 6 10 9 8 8 10 10 20 23 28 30 30 29 29 28 27 25 23 21 19 18 16 15 12 11 10 8 7 7 7 6 5 5 5 6 7 9 11 12 14
1 7 9 6 6 2 3 6 5 7 9 9 9 8 10 9 12 26 31 33 32 32 30 30 30 29 26 23 20 17 17 15 12 12 11 9 7 6 6 6 6 6 7 7 8 10 13 15 17
5 7 3 11 5 2 3 7 4 5 8 13 10 9 9 9 16 26 33 34 33 33 32 31 31 30 28 25 22 19 17 17 18 16 15 12 10 8 7 5 5 6 7 8 9 10 12 14 16
9 5 12 2 5 4 7 9 12 6 3 6 10 11 11 12 16 20 29 33 33 33 34 34 33 32 30 28 25 25 22 19 18 18 17 16 13 11 10 9 8 9 10 10 10 10 11 14 15
10 12 17 5 3 3 4 12 10 5 7 11 13 10 12 7 7 16 25 33 33 36 36 37 37 36 35 33 31 27 23 21 21 19 16 15 15 13 13 12 11 10 10 10 11 8 9 9 8
8 15 9 3 1 2 4 9 8 5 4 4 7 7 8 16 13 11 21 30 38 37 38 38 39 38 38 37 34 30 22 22 18 21 19 18 16 14 13 12 12 11 9 6 5 6 5 4 3
12 7 2 6 4 9 1 10 10 7 11 9 11 9 12 11 8 9 17 26 33 39 39 38 37 38 38 38 37 34 26 22 23 19 20 17 14 13 13 13 11 9 5 5 3 3 3 4 3
3 10 8 4 3 5 9 3 5 3 11 11 11 11 13 13 13 14 20 30 37 37 37 38 38 38 38 39 38 38 33 28 24 19 18 15 15 14 12 11 10 8 6 4 3 3 4 4 2
8 9 9 6 3 4 12 7 6 11 6 7 11 13 15 12 11 10 20 28 31 32 32 34 36 37 37 37 38 38 36 32 24 18 16 15 14 13 12 10 9 7 5 5 5 4 2 3 5
7 12 3 2 4 10 5 6 19 6 9 12 17 17 14 11 9 10 10 19 26 28 28 30 32 33 34 35 36 37 36 34 31 25 25 21 17 15 13 11 10 7 7 5 6 6 6 7 7
10 6 6 7 5 2 5 11 10 9 8 7 7 6 4 8 9 11 15 23 29 28 27 27 30 33 30 32 35 35 36 35 29 27 26 23 21 18 15 13 9 9 8 9 9 9 8 7 7
5 7 2 4 2 2 5 8 9 6 8 7 10 7 10 10 12 16 15 23 27 28 27 26 27 28 30 31 32 33 35 33 28 27 25 24 22 20 16 12 12 13 13 12 10 8 8 6 6
7 10 3 1 5 5 5 6 11 8 9 10 9 12 13 8 8 8 10 18 22 20 20 21 23 25 27 28 30 31 33 33 29 28 27 26 23 20 16 16 16 15 14 12 9 7 7 5 6
4 5 1 2 3 4 2 6 8 14 10 12 14 16 12 9 8 7 9 17 17 17 17 17 19 22 25 28 30 31 32 31 30 30 28 25 22 20 20 19 18 15 13 11 8 6 5 5 6
7 7 8 6 9 4 3 6 2 8 7 6 8 6 2 5 7 7 10 16 16 16 15 17 18 20 23 27 30 31 32 34 33 30 28 23 23 23 22 20 17 15 12 10 7 5 4 4 5
Wind_Direction
323 327 327 43 64 68 230 233 163 111 92 160 71 134 148 68 148 194 145 151 155 149 146 143 135 129 117 110 106 105 106 98 95 94 93 92 92 90 93 92 92 93 91 86 81 79 78 75 71
327 322 33 80 89 76 267 242 189 169 154 132 103 77 56 89 84 126 133 151 151 146 151 147 142 137 125 114 108 108 109 106 103 95 94 96 95 95 96 95 93 97 88 85 83 77 79 74 72
326 346 80 95 108 171 211 204 160 116 154 232 97 59 124 138 105 146 157 152 149 146 148 145 146 138 128 121 118 114 112 106 106 98 98 100 99 98 98 95 101 98 93 84 78 71 72 72 71
306 15 36 87 191 245 203 183 143 132 217 66 114 72 41 318 150 161 153 154 154 154 155 150 148 142 135 128 127 126 123 107 104 98 102 108 102 102 101 102 100 98 91 85 79 77 75 71 71
45 54 62 78 257 272 260 182 142 149 138 131 141 163 69 29 156 154 155 158 157 154 153 147 151 146 138 131 133 125 123 120 113 105 103 113 106 104 97 103 108 108 92 90 87 82 76 70 72
38 104 67 184 268 319 275 150 151 132 139 169 84 94 104 149 147 156 156 160 160 154 151 150 153 148 140 132 135 132 130 128 124 114 103 112 119 113 100 95 100 95 102 98 97 88 78 75 68
129 91 191 183 258 342 208 136 165 149 130 211 148 98 106 164 158 159 158 163 163 157 154 150 152 150 143 138 142 138 137 131 129 127 118 118 125 121 111 106 104 97 97 103 97 87 72 62 58
110 93 124 216 195 244 168 158 133 154 154 105 118 163 178 180 165 161 159 162 163 160 159 153 155 155 148 145 146 147 143 135 128 130 134 131 131 130 121 122 108 100 94 95 96 87 71 60 53
129 73 180 193 152 226 148 149 112 95 119 285 144 154 183 163 163 154 149 149 159 163 163 161 161 160 155 150 147 148 149 139 136 137 139 142 140 135 130 122 114 101 95 94 91 85 76 57 57
102 128 211 202 183 198 188 162 158 134 132 160 70 48 138 154 157 161 160 154 165 170 168 170 169 166 163 159 155 154 154 151 147 144 142 140 144 144 142 137 126 116 105 88 92 83 49 50 48
148 178 214 248 207 169 180 173 166 128 223 205 187 157 152 160 165 173 173 165 175 177 177 175 177 175 172 166 163 161 159 157 155 153 150 147 150 149 146 138 119 102 94 82 75 54 24 23 22
75 343 313 315 173 148 172 134 173 187 219 195 173 164 157 169 179 176 179 176 174 180 182 182 183 184 183 177 172 170 169 166 165 161 161 164 159 158 153 140 138 120 103 78 51 14 7 6 2
77 337 329 325 323 256 134 188 185 215 335 108 136 162 169 174 182 186 186 185 180 183 185 188 189 191 191 189 182 181 181 181 177 179 182 183 185 178 169 167 154 117 26 15 0 355 350 347 343
88 279 295 348 334 262 149 114 179 189 116 117 153 172 175 182 181 182 184 186 190 190 188 190 195 195 194 195 196 192 193 191 195 200 203 203 211 216 228 240 266 300 333 335 343 341 339 338 336
106 19 334 348 328 286 169 81 233 141 139 151 171 176 180 186 183 189 190 189 193 197 194 196 195 200 202 200 201 202 201 202 205 209 217 222 237 247 263 265 278 297 311 323 332 334 331 331 328
85 79 256 271 321 225 137 251 235 166 148 177 180 190 182 198 196 199 198 201 198 199 198 198 200 200 204 205 204 205 204 207 214 221 225 230 238 250 260 275 288 297 310 318 323 324 324 322 325
245 208 214 272 217 276 167 252 254 173 165 190 193 196 199 204 205 208 208 207 204 203 203 203 204 204 205 206 209 210 212 214 221 227 233 231 238 253 266 281 294 299 304 303 314 315 317 319 326
154 186 196 227 231 188 224 260 269 207 186 196 193 201 204 206 222 209 212 212 211 209 210 210 210 211 212 210 209 212 218 227 224 228 224 226 233 240 253 270 282 291 292 289 301 313 319 326 330
181 174 225 246 264 201 220 235 243 191 252 213 209 204 208 215 226 225 218 216 214 215 214 215 214 214 211 209 206 209 212 222 224 225 228 226 222 227 241 251 258 269 282 292 299 311 318 329 336
164 187 207 252 263 231 221 252 249 177 217 218 214 211 212 215 208 218 220 218 215 217 219 219 220 219 216 214 211 214 223 228 236 230 227 222 225 237 242 257 267 271 278 283 293 298 315 330 4
184 189 189 242 281 182 313 262 248 229 222 219 225 216 211 219 215 218 214 216 216 217 221 222 223 224 223 221 220 219 224 222 231 233 232 235 240 246 250 253 258 265 265 267 278 301 309 322 36
197 174 94 27 337 232 353 263 248 221 233 204 226 209 226 216 215 220 218 221 218 219 223 227 227 227 227 225 221 217 213 212 229 237 242 242 242 240 241 253 254 253 233 250 255 274 273 300 38
210 122 94 87 27 9 238 267 234 148 239 227 227 223 229 222 214 218 214 224 226 224 222 226 228 228 226 225 223 221 218 226 229 226 229 228 230 232 233 231 226 222 215 229 240 254 292 329 356
115 85 54 53 76 244 224 209 223 219 194 223 230 227 225 220 218 218 230 228 227 224 223 223 225 226 225 224 221 222 220 223 218 214 215 212 215 214 214 208 207 205 203 237 241 240 225 101 84
117 146 114 158 191 235 202 207 245 283 219 200 222 225 220 216 195 200 191 203 211 211 211 212 214 218 222 223 222 222 223 225 222 205 202 199 200 192 190 197 189 185 223 207 182 159 129 110 94
163 186 152 179 194 291 126 228 236 231 227 229 260 257 252 207 201 209 204 200 202 202 204 203 206 212 212 218 222 224 223 226 219 210 199 199 196 195 186 185 181 206 176 159 146 134 116 101 91
163 212 89 102 72 74 202 267 307 249 271 243 241 250 235 221 209 205 189 196 198 199 203 206 206 208 211 211 216 218 219 219 209 203 199 192 186 180 179 180 193 167 155 147 143 131 115 100 73
182 154 191 306 177 231 251 271 229 201 231 244 249 238 246 235 209 186 179 184 196 199 206 213 219 219 216 211 213 210 213 215 205 196 188 185 180 176 176 185 169 159 153 151 145 128 108 88 65
142 180 178 251 186 181 195 252 213 210 221 220 225 229 228 215 211 176 161 185 193 200 205 212 216 216 214 209 211 212 203 196 188 180 180 180 177 177 180 172 165 159 155 151 147 121 100 66 52
183 176 171 190 210 204 137 275 205 241 298 280 277 300 280 181 170 166 167 179 187 196 198 204 207 206 205 202 203 196 187 177 175 177 175 175 176 175 172 167 164 158 155 151 140 124 91 53 30